CAPE
5 35 7 3 35 1 0 0 22 41 2 0 0 0 0 0 0 0 0 0 0 0 0 0 0 0 0 0 0 0 0 0 9 11 13 15 14 13 12 13 3 0 0 0
58 20 0 0 0 0 1 1 0 3 0 0 0 0 0 0 0 0 0 0 0 0 0 0 0 0 0 0 0 0 0 0 3 6 5 7 9 11 10 11 6 2 0 0
44 2 11 0 1 0 7 15 2 4 0 0 0 0 0 0 0 0 0 0 0 0 0 0 0 0 0 0 0 0 0 0 0 1 5 10 12 13 11 9 8 6 2 0
55 58 35 10 5 1 6 2 19 19 16 2 0 1 0 0 0 0 0 0 0 0 0 0 0 0 0 0 0 0 0 0 0 6 7 4 5 8 3 5 6 7 2 2
12 14 14 19 1 1 0 14 32 37 7 16 2 6 0 0 0 0 0 0 0 0 0 0 0 0 0 0 0 0 0 0 0 0 7 7 9 4 5 5 6 8 7 1
15 11 46 1 17 7 9 22 21 32 29 40 0 1 0 0 0 0 0 0 0 0 0 0 0 0 0 0 0 0 0 0 0 0 12 7 7 4 8 7 10 9 7 5
18 33 6 25 44 72 26 28 21 49 41 0 0 0 0 0 0 0 0 0 0 0 0 0 0 0 0 0 0 0 0 0 0 0 0 16 13 3 0 2 2 9 7 4
8 6 11 8 24 9 14 38 7 9 9 1 0 0 0 0 0 0 0 0 0 0 0 0 0 0 0 0 0 0 0 0 0 0 0 0 11 7 2 0 0 2 1 0
5 13 21 1 64 32 24 12 5 5 0 0 0 0 0 0 0 0 0 0 0 0 0 0 0 0 0 0 0 0 0 0 0 0 0 0 0 0 0 0 0 0 0 0
2 27 8 2 17 27 34 22 12 6 25 9 0 0 0 0 0 0 0 0 0 0 0 0 0 0 0 0 0 0 0 0 0 0 0 0 0 0 0 0 0 0 0 0
1 15 5 25 16 12 6 25 14 1 2 18 1 0 0 0 0 0 0 0 0 0 0 0 0 0 0 0 0 0 0 0 0 0 0 0 0 0 0 0 0 0 0 0
3 1 14 5 15 35 52 51 30 14 18 6 1 0 0 0 0 0 0 0 0 0 0 0 0 0 0 0 0 0 0 0 0 0 0 0 0 0 0 2 0 1 1 1
0 21 16 39 2 23 52 73 60 29 14 25 10 0 0 0 0 0 0 0 0 0 0 0 0 0 0 0 0 0 0 0 0 0 0 0 0 0 1 3 3 2 3 2
45 38 31 19 1 0 9 1 39 91 68 0 0 0 0 0 0 0 0 0 0 0 0 0 0 0 0 0 0 0 0 0 0 0 0 0 0 1 2 4 3 1 0 0
24 2 0 0 0 2 27 14 2 35 8 11 0 0 0 0 0 0 0 0 0 0 0 0 0 0 0 0 0 0 0 0 0 0 0 0 1 0 1 1 0 0 0 0
4 1 0 0 2 12 0 26 28 5 0 24 0 1 0 0 0 0 0 0 0 0 0 0 0 0 0 0 0 0 0 0 0 0 0 0 0 0 0 0 1 1 1 1
10 5 4 8 5 15 33 0 0 0 0 0 1 0 0 0 0 0 0 0 0 0 0 0 0 0 0 0 0 0 0 0 0 0 0 0 0 1 1 1 1 1 1 1
55 14 42 24 3 29 0 0 0 0 0 0 0 0 0 0 0 0 0 0 0 0 0 0 0 0 0 0 0 0 0 0 0 0 0 0 0 0 1 1 1 1 0 0
1 5 38 30 28 0 0 0 0 0 0 0 0 0 0 0 0 0 0 0 0 0 0 0 0 0 0 0 0 0 0 0 0 0 0 0 0 0 0 0 0 0 0 0
10 10 26 16 12 8 0 0 0 0 0 0 0 0 0 0 0 0 0 0 0 0 0 0 0 0 0 0 0 0 0 0 0 0 0 0 0 0 0 0 0 0 0 0
5 15 10 15 12 0 0 0 0 0 0 0 0 0 0 0 0 0 0 0 0 0 0 0 0 0 0 0 0 0 0 0 0 0 0 0 0 0 0 0 0 0 0 0
0 5 7 11 18 0 0 0 0 0 0 0 0 0 0 0 0 0 0 0 0 0 0 0 0 0 0 0 0 0 0 0 0 0 0 0 0 0 0 0 0 0 0 0
0 0 6 0 0 0 0 0 0 0 0 0 0 0 0 0 0 0 0 0 0 0 0 0 0 0 0 0 0 0 0 0 0 0 0 0 0 0 0 0 0 0 0 0
0 0 0 0 0 0 0 0 0 0 0 0 0 0 0 0 0 0 0 0 0 0 0 0 0 0 0 0 0 0 0 0 0 0 0 0 0 0 0 0 0 0 0 0
0 0 0 0 0 0 0 0 0 0 0 0 0 0 0 0 0 0 0 0 0 2 0 3 3 1 0 0 0 0 0 0 0 0 0 0 0 0 0 0 0 0 0 0
0 0 0 0 0 0 0 0 0 0 0 0 0 0 0 0 0 0 0 1 0 1 4 2 2 0 1 1 0 0 0 0 0 0 0 0 0 0 0 0 0 0 0 0
CIN
-6 0 0 0 -2 0 0 0 0 -1 -34 0 0 0 0 0 0 0 0 0 0 0 0 0 0 0 0 0 0 0 0 0 0 0 0 0 0 0 0 0 0 0 0 0
-1 0 0 -7 0 0 0 0 0 -3 0 0 0 0 0 0 0 0 0 0 0 0 0 0 0 0 0 0 0 0 0 0 0 0 0 0 0 0 0 0 0 0 0 0
-12 -1 -10 0 0 0 0 0 0 -1 -2 0 0 0 0 0 0 0 0 0 0 0 0 0 0 0 0 0 0 0 0 0 0 0 0 0 0 0 0 -1 0 0 0 0
0 0 -2 0 0 0 0 0 -1 0 0 0 0 0 0 0 0 0 0 0 0 0 0 0 0 0 0 0 0 0 0 0 0 -111 0 0 0 0 0 0 0 0 0 0
0 -1 -1 0 0 0 0 -2 0 0 0 0 0 0 0 0 0 0 0 0 0 0 0 0 0 0 0 0 0 0 0 0 0 0 -132 0 0 0 0 0 0 0 0 0
-10 -10 0 -5 -11 -1 -23 -14 -5 0 0 0 0 0 0 0 0 0 0 0 0 0 0 0 0 0 0 0 0 0 0 0 0 0 -190 -230 -230 0 0 0 0 0 0 0
-2 -3 -6 -19 -1 0 -2 -1 -1 0 -1 0 0 0 0 0 0 0 0 0 0 0 0 0 0 0 0 0 0 0 0 0 0 0 0 -226 -221 0 0 0 0 0 0 0
-3 -3 -26 -3 -2 -1 -6 0 -1 -2 0 0 0 0 0 0 0 0 0 0 0 0 0 0 0 0 0 0 0 0 0 0 0 0 0 -25 -230 -208 0 0 0 0 0 0
0 0 0 -2 -2 -1 -2 -38 -22 -2 0 0 0 0 0 0 0 0 0 0 0 0 0 0 0 0 0 0 0 0 0 0 0 0 0 0 0 0 0 0 0 0 0 0
0 -1 0 -4 -17 -6 -2 -4 0 -1 0 0 0 0 0 0 0 0 0 0 0 0 0 0 0 0 0 0 0 0 0 0 0 0 0 0 0 0 0 0 0 0 0 0
-4 -5 -1 0 -2 0 -6 -1 -4 -1 0 -1 0 0 0 0 0 0 0 0 0 0 0 0 0 0 0 0 0 0 0 0 0 0 0 0 0 0 0 0 0 0 0 0
0 0 0 -2 -2 -3 -4 -6 -23 -1 0 0 0 0 0 0 0 0 0 0 0 0 0 0 0 0 0 0 0 0 0 0 0 0 0 0 0 0 -1 0 0 -1 -1 -1
-19 -9 -11 0 0 -8 -6 0 0 -1 -17 -12 0 0 0 0 0 0 0 0 0 0 0 0 0 0 0 0 0 0 0 0 0 0 0 0 0 0 -1 0 0 -1 -1 -1
-6 0 -10 -16 -27 0 -4 -30 -2 0 0 0 0 0 0 0 0 0 0 0 0 0 0 0 0 0 0 0 0 0 0 0 0 0 0 0 0 -1 -1 -1 -1 -1 0 0
0 -11 0 0 0 -7 -5 -1 -10 0 0 0 0 0 0 0 0 0 0 0 0 0 0 0 0 0 0 0 0 0 0 0 0 0 0 0 -1 0 -2 -1 0 0 0 -2
-1 -2 -1 0 -1 -4 -1 -5 -17 -13 0 0 0 0 0 0 0 0 0 0 0 0 0 0 0 0 0 0 0 0 0 0 0 0 0 0 0 0 0 0 0 0 0 0
-1 0 0 0 -2 -2 -1 0 0 0 0 0 0 0 0 0 0 0 0 0 0 0 0 0 0 0 0 0 0 0 0 0 0 0 0 0 0 0 0 0 0 0 0 0
-5 -15 -10 -1 -6 0 0 0 0 0 0 0 0 0 0 0 0 0 0 0 0 0 0 0 0 0 0 0 0 0 0 0 0 0 0 0 0 0 0 0 0 0 0 0
0 0 0 0 0 0 0 0 0 0 0 0 0 0 0 0 0 0 0 0 0 0 0 0 0 0 0 0 0 0 0 0 0 0 0 0 0 0 0 0 0 0 0 0
0 0 0 0 0 -1 0 0 0 0 -1 0 0 0 0 0 0 0 0 0 0 0 0 0 0 0 0 0 0 0 0 0 0 0 0 0 0 0 0 0 0 0 0 0
0 0 0 0 -3 0 0 0 0 -2 0 0 0 0 0 0 0 0 0 0 0 0 0 0 0 0 0 0 0 0 0 0 0 0 0 0 0 0 0 0 0 0 0 0
0 0 0 0 -1 0 0 0 0 0 0 0 0 0 0 0 0 0 0 0 0 0 0 0 0 0 0 0 0 0 0 0 0 0 0 0 0 0 0 0 0 0 0 0
0 0 -34 -5 0 0 0 0 0 0 0 0 0 0 0 0 0 0 0 0 0 0 0 0 0 0 0 0 0 0 0 0 0 0 0 0 0 0 0 0 0 0 0 0
0 0 0 0 0 0 0 0 0 0 0 0 0 0 0 0 0 0 0 0 0 0 0 0 0 0 0 0 0 0 0 0 0 0 0 0 0 0 0 0 0 0 0 0
0 0 0 0 0 0 0 0 0 0 0 0 0 0 0 0 0 0 0 0 0 0 0 0 0 0 -1 0 0 0 0 0 0 0 0 0 0 0 0 0 0 0 0 0
0 0 0 0 0 0 0 0 0 0 0 0 0 0 0 0 0 0 0 0 0 0 0 0 0 0 0 0 0 0 0 0 0 0 0 0 0 0 0 0 0 0 0 0
Wind_Speed
10 7 13 20 9 7 9 8 19 15 3 6 15 17 20 18 20 20 19 18 16 15 16 16 14 16 16 16 18 18 18 18 13 11 11 10 10 9 9 9 12 13 12 13
9 19 18 18 11 2 6 6 11 6 1 4 12 19 20 20 21 20 21 20 21 20 16 16 16 15 17 19 18 18 18 17 15 12 11 10 9 9 10 9 11 13 13 13
16 8 19 19 14 11 10 11 7 8 5 10 11 23 22 25 23 23 23 21 21 21 21 19 16 18 17 18 18 19 19 19 18 18 11 9 9 10 10 10 10 12 14 14
17 19 14 16 24 18 18 16 10 10 5 3 1 11 16 17 17 16 15 17 21 22 21 21 19 18 19 17 16 17 18 19 17 18 15 17 13 12 12 11 10 11 15 15
14 18 19 19 20 21 13 16 19 16 8 10 14 9 7 10 15 17 17 21 21 20 19 19 18 18 17 12 15 14 16 17 18 18 18 14 16 12 10 10 14 14 12 15
7 7 16 20 16 20 8 7 12 12 8 8 16 15 11 11 13 13 17 15 15 14 12 13 12 11 11 9 8 12 15 17 17 18 19 20 18 16 12 13 12 11 11 11
7 12 4 7 16 16 13 15 4 6 6 8 4 10 14 12 10 13 11 6 4 5 6 7 8 8 9 11 11 11 15 17 17 19 19 20 20 18 18 15 12 12 11 11
9 10 15 15 14 9 14 13 5 5 6 4 1 11 5 11 14 16 15 11 8 8 8 9 9 10 10 9 11 13 15 17 17 18 20 18 20 14 14 15 12 11 11 11
4 2 11 11 10 15 9 9 5 3 2 2 8 12 14 15 12 9 7 7 5 5 9 9 9 8 10 10 9 11 13 16 16 18 16 17 18 19 16 18 15 12 12 10
3 4 6 10 4 6 7 11 4 2 5 7 9 13 11 4 5 4 2 4 4 7 7 10 10 8 7 9 9 10 12 14 14 14 15 15 17 17 17 15 16 16 14 13
4 2 4 9 10 10 4 6 2 4 3 5 5 8 6 5 7 8 8 4 5 5 4 9 9 8 7 5 6 9 10 10 11 12 13 14 14 16 15 14 14 14 12 12
8 2 5 12 2 5 17 10 7 6 6 6 4 11 5 7 1 4 6 7 2 3 4 6 6 10 11 9 6 5 7 8 9 9 11 12 12 12 13 14 14 13 13 13
9 4 4 8 2 4 10 17 15 15 5 7 4 9 7 8 1 5 7 9 9 8 10 12 13 11 11 10 8 6 6 7 7 7 9 10 12 13 14 14 13 12 12 11
13 8 8 8 5 7 13 13 19 18 11 19 16 31 24 13 14 16 15 13 15 14 14 14 15 15 14 10 8 7 6 6 5 7 8 10 11 11 11 11 11 11 8 8
6 6 13 17 17 6 8 18 19 21 24 21 22 27 32 11 11 12 14 13 14 14 14 17 16 16 15 12 12 8 8 6 5 7 9 10 8 8 9 8 7 7 7 8
8 1 7 8 12 8 9 6 11 17 20 18 25 26 37 15 16 14 9 14 14 14 20 21 18 17 15 15 13 11 10 7 6 8 9 7 6 5 5 5 5 5 5 5
10 5 3 4 6 7 9 23 22 20 18 19 19 27 23 18 17 16 17 17 18 20 21 18 17 16 14 14 13 11 12 6 6 7 6 6 6 7 6 6 7 7 7 5
7 6 2 2 3 10 10 10 16 23 25 23 23 27 28 22 22 17 18 16 18 19 17 15 13 16 17 15 14 10 9 6 7 7 6 6 7 7 7 7 7 6 6 7
1 6 4 5 9 10 14 9 8 11 18 18 20 22 20 21 19 15 11 14 14 15 14 15 17 20 20 17 16 9 7 7 7 8 8 9 9 9 11 10 10 8 7 6
2 2 5 4 6 7 9 8 10 8 12 16 18 20 18 15 13 8 19 17 17 16 15 17 20 20 20 17 16 9 8 10 10 12 15 11 11 11 12 11 11 6 6 4
5 3 7 7 4 7 10 6 0 7 11 9 12 12 12 9 12 15 18 19 17 17 18 19 20 19 19 18 14 14 14 14 14 12 9 10 11 12 11 9 7 6 7 7
10 8 5 5 4 12 8 4 10 6 12 12 14 14 15 15 17 17 15 17 18 19 21 19 19 19 19 17 14 18 18 15 12 7 9 10 10 8 8 11 7 7 8 9
6 7 6 9 8 4 3 8 12 13 9 12 15 18 18 18 19 20 20 18 17 18 18 17 19 22 20 16 12 18 19 15 8 7 8 6 7 9 10 12 11 9 9 9
3 4 3 1 11 14 3 12 16 15 14 14 15 17 19 21 22 22 20 18 18 16 15 15 18 22 23 18 16 16 15 13 9 10 8 7 10 10 10 8 9 10 11 10
3 1 3 8 14 15 14 14 17 21 17 17 18 18 20 21 22 23 21 21 18 17 17 16 17 20 23 20 21 17 14 8 11 10 8 9 9 10 10 10 9 10 10 12
6 5 3 6 6 6 9 18 25 18 19 20 21 24 21 19 22 22 21 18 20 20 18 18 20 21 20 21 22 19 12 8 11 11 8 9 9 8 8 8 5 2 7 10
Wind_Direction
167 166 197 204 218 341 309 329 262 241 3 282 253 257 260 258 260 249 249 257 254 250 246 239 223 215 214 218 217 218 211 208 204 203 208 209 209 209 214 213 209 208 207 204
167 216 190 184 150 111 339 288 284 281 151 284 273 273 275 269 260 258 261 255 254 252 246 245 232 217 214 219 219 220 220 211 207 202 206 207 210 214 215 211 216 213 210 208
218 192 211 181 176 178 227 254 240 269 284 259 289 272 257 258 251 250 251 251 256 255 250 241 230 226 223 218 215 216 216 215 210 210 204 203 207 214 217 212 209 214 215 208
225 221 192 200 211 199 214 184 201 227 252 254 191 290 268 277 278 236 246 247 250 245 244 247 246 222 213 222 219 219 216 212 215 207 210 204 204 206 212 208 209 210 213 216
203 200 203 214 214 196 243 184 201 217 225 282 248 250 269 245 258 256 258 247 241 242 248 250 248 244 254 233 214 222 224 217 213 211 208 215 214 218 212 214 216 212 211 212
203 220 199 215 211 193 117 141 205 225 225 243 237 239 268 258 265 265 254 253 254 255 259 264 264 272 274 259 229 216 221 222 216 210 212 216 218 214 213 216 215 216 208 206
177 179 127 183 206 194 167 165 172 187 206 248 155 225 245 271 261 260 275 327 356 349 319 297 289 271 254 245 245 227 224 227 219 214 213 214 222 218 224 221 217 213 213 209
153 178 174 180 196 173 197 176 175 214 193 263 142 240 242 253 267 264 267 282 290 302 315 317 316 300 286 266 246 232 228 232 224 217 218 214 218 222 219 221 220 218 216 215
107 168 175 177 198 170 170 212 281 313 124 267 233 254 263 254 251 264 272 273 281 15 5 357 346 330 309 297 261 246 241 232 226 223 218 217 218 218 222 219 217 218 213 219
228 115 222 202 67 260 221 153 128 181 212 233 248 252 251 263 217 226 263 354 20 6 25 11 360 336 328 314 303 279 254 249 239 233 224 219 221 221 222 222 218 217 215 209
239 223 169 159 201 175 137 172 170 134 226 269 272 246 9 218 259 81 71 2 8 21 351 343 338 336 329 312 295 284 273 260 246 240 234 226 224 226 224 224 223 218 216 209
184 154 169 192 117 239 209 185 156 188 194 245 318 257 307 296 172 79 19 36 37 230 294 312 323 332 335 328 305 273 268 268 261 250 245 241 234 227 228 224 223 219 216 213
147 182 143 169 204 206 217 213 213 231 271 198 228 260 80 47 15 359 295 336 335 5 342 326 334 330 323 314 314 298 268 260 264 259 250 239 229 225 225 224 222 221 217 218
166 212 221 240 204 173 208 224 220 224 232 250 242 270 254 270 289 300 314 342 338 332 332 331 318 312 306 302 288 283 268 254 244 246 245 240 239 229 226 221 223 222 212 210
206 227 239 247 266 272 281 224 229 233 235 240 252 258 266 272 298 333 322 315 318 311 311 308 296 293 296 303 297 290 271 246 225 234 236 238 240 236 224 218 203 195 194 206
194 247 235 258 261 239 241 232 235 243 253 268 260 273 271 311 300 283 284 290 295 302 293 290 292 301 306 301 293 298 283 259 211 230 233 229 209 211 209 178 166 164 172 168
173 153 133 237 191 244 257 237 239 244 238 232 245 253 284 282 279 287 300 295 289 282 284 295 301 305 302 297 295 282 277 257 218 231 219 209 186 199 207 185 177 181 176 156
185 151 114 201 108 226 237 257 234 241 246 248 258 265 273 276 276 277 280 286 279 284 296 304 311 314 311 307 300 267 257 237 225 221 219 204 182 204 188 181 182 172 166 177
2 174 168 213 223 287 302 242 222 222 254 249 253 267 283 278 286 286 302 355 353 344 341 335 322 312 311 310 302 268 249 233 230 234 215 209 196 188 197 197 190 182 167 175
134 346 211 167 231 230 272 5 203 216 266 255 251 262 273 287 286 314 350 347 340 340 337 332 322 315 312 316 315 290 253 241 240 231 225 205 196 194 200 198 195 172 172 151
177 187 225 215 252 268 257 241 223 158 271 22 2 360 347 323 333 337 336 329 329 323 324 323 315 311 310 320 324 305 276 262 253 243 227 204 195 191 193 182 189 169 156 143
175 174 196 204 241 262 192 168 222 346 23 27 357 354 338 327 320 315 323 317 319 321 324 320 313 309 311 314 310 299 290 284 266 235 217 212 186 182 177 177 160 164 163 159
206 192 175 203 214 241 170 54 54 26 25 359 342 336 332 320 320 320 318 319 318 317 314 312 309 307 304 305 298 294 292 300 269 225 224 201 187 181 171 174 173 168 174 174
232 257 257 108 252 263 91 71 29 14 358 345 340 330 325 318 318 314 313 313 313 310 306 307 303 301 300 305 298 286 287 287 264 236 222 190 195 194 180 184 182 179 182 181
38 164 190 255 275 333 77 42 1 338 341 339 329 321 318 316 311 311 308 307 306 309 310 304 302 295 295 304 301 301 295 261 254 240 218 208 196 204 194 186 191 199 202 193
9 16 258 260 23 322 296 336 330 338 339 330 324 321 317 314 309 308 301 305 309 307 309 302 302 299 305 307 300 304 298 249 251 246 221 211 204 187 205 193 145 156 177 180